[[{"header":{"parameterUnit":"m.s-1","parameterCategory":1,"la1":30.2991,"la2":30.254,"lo1":-89.0895,"lo2":-89.0444,"dy":0.0017,"dx":0.0017,"nx":28,"ny":28,"refTime":"2025-04-06T09:00:00:Z","depth":0,"parameterNumber":2,"parameterNumberName":"U-component_of_WINDS"},"data":[0,0,0,0,0,0,0,0,0,0,0,0,0,0,0,0,0,0,0,0,0,0,0,0,0,0,0,0,0,0,0,0,0,0,0,0,0,0,0,0,0,0,0,0,0,0,0,0,0,0,0,0,0,0,0,0,0,0,3.4585,3.4586,0,3.4647,3.4647,3.4648,3.4622,3.4621,3.4619,3.4618,3.4681,3.4684,3.4687,0,0,0,0,0,0,0,0,0,0,0,0,0,3.4448,3.4451,3.4585,3.4586,3.4587,3.4646,3.4647,3.4648,3.4622,3.4621,3.4619,3.4617,3.468,3.4684,3.4687,0,0,0,0,0,0,0,0,0,0,0,0,0,3.4509,3.4452,3.4585,3.4581,3.4581,3.4646,3.4647,3.4648,3.4623,3.462,3.4618,3.4616,3.4679,3.4683,3.4688,3.476,0,0,3.4702,3.4704,0,0,0,0,0,0,0,0,3.4505,3.4514,3.4581,3.4582,3.4582,3.4624,3.4622,3.4686,3.4623,3.4607,3.4618,3.4615,3.4664,3.467,3.4686,3.4763,3.4766,3.4702,3.4705,3.4707,3.4708,0,0,0,0,0,0,0,3.4501,3.4511,3.4609,3.4582,3.4583,3.4577,3.4583,3.4634,3.4647,3.4608,3.4607,3.4614,3.4664,3.4682,3.4687,3.4767,3.4702,3.4706,3.4709,3.4711,3.491,3.4912,0,0,0,0,0,0,3.4497,3.4508,3.4608,3.4611,3.4537,3.4581,3.4588,3.4613,3.4647,3.465,3.4616,3.4613,3.4675,3.4682,3.4689,3.4778,3.4707,3.4711,3.4714,3.4907,3.491,3.4913,0,0,0,0,0,0,3.4494,3.4506,3.4605,3.4559,3.4571,3.4586,3.4614,3.4615,3.4633,3.4652,3.4655,3.4632,3.4673,3.4683,3.4743,3.478,3.4713,3.4718,3.4904,3.4908,3.4911,3.4954,0,0,0,0,0,0,3.449,3.4505,3.4532,3.456,3.4574,3.4657,3.4616,3.4618,3.4641,3.4637,3.4668,3.4671,3.4672,3.4737,3.4748,3.4785,3.4721,3.4901,3.4906,3.491,3.495,3.4959,3.4967,0,0,0,0,0,3.4485,3.4541,3.4533,3.4546,3.4608,3.4659,3.4668,3.4668,3.4644,3.4672,3.4685,3.467,3.4774,3.4743,3.4756,3.4794,3.4899,3.4904,3.491,3.4946,3.4957,3.4967,0,0,0,0,0,0,3.4517,3.4545,3.4536,3.4603,3.4629,3.4655,3.469,3.468,3.4714,3.4709,3.4709,3.4716,3.4779,3.4793,3.4758,3.4868,3.4833,3.4841,3.4856,3.4867,3.4875,3.4871,3.4725,0,0,0,0,0,3.4532,3.4571,3.4593,3.465,3.4664,3.4675,3.4697,3.4696,3.4723,3.4734,3.4751,3.4778,3.4817,3.4843,3.488,3.4952,3.4959,3.4985,3.4994,3.5001,3.5008,3.5049,3.5061,3.4931,3.4931,3.4931,0,0,3.4563,3.4583,3.4607,3.4657,3.4677,3.4719,3.4684,3.4729,3.476,3.4741,3.4799,3.4813,3.4843,3.4911,3.4941,3.4924,3.5046,3.5008,3.5014,3.5017,3.5056,3.5068,3.5079,3.4935,3.4935,3.4934,0,0,3.464,3.4659,3.4709,3.473,3.4761,3.4768,3.4781,3.4809,3.4817,3.4876,3.4863,3.49,3.4967,3.499,3.501,3.51,3.5087,3.5112,3.5157,3.5197,3.5207,3.5216,3.5249,3.526,3.5119,3.5119,3.5119,0,3.4674,3.4735,3.4736,3.4782,3.4805,3.479,3.4842,3.4863,3.4904,3.4921,3.4901,3.4987,3.5006,3.5079,3.5101,3.5118,3.5133,3.5108,3.5205,3.5215,3.5223,3.5254,3.5266,3.5122,3.5121,3.5121,3.5121,0,3.4777,3.482,3.4856,3.4898,3.4925,3.4973,3.4982,3.501,3.5007,3.5017,3.5078,3.5101,3.5143,3.5161,3.5158,3.5234,3.5223,3.5205,3.517,3.5238,3.5267,3.5279,3.5126,3.5125,3.5124,3.5123,0,0,3.4874,3.4916,3.493,3.4949,3.4983,3.5017,3.5066,3.5107,3.5132,3.5162,3.5203,3.5262,3.5246,3.5269,3.5269,3.5304,3.5375,3.5282,3.5282,3.5299,3.5462,3.5475,3.5489,3.5367,3.537,3.5371,3.5459,0,3.4954,3.5039,3.5042,3.512,3.5161,3.5149,3.5192,3.5218,3.5229,3.5266,3.5279,3.532,3.5296,3.531,3.5344,3.5359,3.5407,3.5352,3.5407,3.5409,3.5399,3.5504,3.5518,3.5599,3.5471,3.5472,3.5474,0,3.5059,3.5092,3.5175,3.5205,3.5222,3.526,3.53,3.5335,3.5365,3.5371,3.5399,3.5394,3.5446,3.541,3.5481,3.5444,3.5467,3.5478,3.5481,3.5486,3.5445,3.5512,3.5625,3.5638,3.5492,3.549,3.5489,0,3.5122,3.5188,3.5246,3.5263,3.53,3.5327,3.5344,3.5372,3.5398,3.5433,3.5449,3.549,3.5512,3.5544,3.5551,3.5524,3.5624,3.5588,3.5631,3.5631,3.5651,3.565,3.577,3.5667,3.5666,3.5666,3.5666,0,3.5211,3.5262,3.5276,3.5311,3.5369,3.5373,3.543,3.5444,3.547,3.551,3.5502,3.5539,3.5547,3.5586,3.5592,3.5651,3.5661,3.5668,3.5669,3.5669,3.5668,3.5683,3.5678,3.5669,3.5669,3.5668,3.5667,0,3.5291,3.5302,3.5365,3.5395,3.5404,3.5445,3.5471,3.5506,3.5518,3.5568,3.558,3.5597,3.5643,3.5654,3.5709,3.5713,3.5784,3.5779,3.5773,3.5773,3.5815,3.5811,3.5949,3.5968,3.5852,3.5853,3.5854,0,3.5347,3.5387,3.5421,3.5447,3.5465,3.5507,3.5533,3.5539,3.5567,3.5606,3.5636,3.5682,3.5718,3.5793,3.5811,3.5853,3.585,3.5896,3.5856,3.5855,3.5851,3.5849,3.5853,3.5903,3.5904,3.5905,3.5906,0,3.5446,3.545,3.5488,3.5528,3.556,3.5592,3.5623,3.5645,3.5655,3.5687,3.5734,3.5763,3.5819,3.5865,3.5908,3.5926,3.5919,3.5919,3.5931,3.593,3.5926,3.5929,3.5794,3.5915,3.5914,3.5913,3.5913,3.5913,3.5516,3.5551,3.5581,3.5624,3.5648,3.5678,3.5712,3.5728,3.5768,3.5814,3.5815,3.5867,3.5899,3.5956,3.5977,3.6018,3.6004,3.6022,3.6026,3.6031,3.6035,3.5919,3.6026,3.6026,3.6026,3.6026,3.6025,0,3.5615,3.5634,3.5674,3.5717,3.5752,3.5742,3.5776,3.5805,3.5851,3.5881,3.5917,3.5972,3.6017,3.604,3.6084,3.6113,3.6111,3.6125,3.6123,3.6127,3.6044,3.6029,3.6126,3.6126,3.6126,3.6126,3.6126,3.6126,3.567,3.5729,3.5737,3.5808,3.5827,3.5877,3.5898,3.5926,3.595,3.6012,3.6049,3.6063,3.6091,3.6138,3.6179,3.6185,3.6202,3.6218,3.6222,3.6143,3.6133,3.6123,3.6109,3.6221,3.6221,3.6301,3.6302,3.6303]},{"header":{"parameterUnit":"m.s-1","parameterCategory":1,"la1":30.2991,"la2":30.254,"lo1":-89.0895,"lo2":-89.0444,"dy":0.0017,"dx":0.0017,"nx":28,"ny":28,"refTime":"2025-04-06T09:00:00:Z","depth":0,"parameterNumber":3,"parameterNumberName":"V-component_of_WINDS"},"data":[0,0,0,0,0,0,0,0,0,0,0,0,0,0,0,0,0,0,0,0,0,0,0,0,0,0,0,0,0,0,0,0,0,0,0,0,0,0,0,0,0,0,0,0,0,0,0,0,0,0,0,0,0,0,0,0,0,0,-5.5481,-5.5482,0,-5.5588,-5.5589,-5.5591,-5.5535,-5.5532,-5.5529,-5.5526,-5.5632,-5.5637,-5.5643,0,0,0,0,0,0,0,0,0,0,0,0,0,-5.5225,-5.523,-5.5481,-5.5482,-5.5483,-5.5588,-5.5589,-5.5591,-5.5535,-5.5532,-5.5528,-5.5525,-5.563,-5.5636,-5.5643,0,0,0,0,0,0,0,0,0,0,0,0,0,-5.5334,-5.5231,-5.548,-5.5468,-5.5468,-5.5588,-5.5589,-5.5591,-5.5536,-5.5532,-5.5527,-5.5523,-5.5628,-5.5636,-5.5644,-5.578,0,0,-5.5669,-5.5672,0,0,0,0,0,0,0,0,-5.5328,-5.5344,-5.5469,-5.5469,-5.547,-5.5544,-5.5538,-5.5654,-5.5537,-5.551,-5.5526,-5.5521,-5.5606,-5.5615,-5.5645,-5.5785,-5.5789,-5.567,-5.5675,-5.5678,-5.568,0,0,0,0,0,0,0,-5.5321,-5.5339,-5.5523,-5.5471,-5.5471,-5.5457,-5.5467,-5.556,-5.558,-5.5512,-5.5508,-5.5522,-5.5605,-5.5637,-5.5647,-5.5791,-5.5669,-5.5677,-5.5682,-5.5685,-5.605,-5.6055,0,0,0,0,0,0,-5.5314,-5.5333,-5.552,-5.5526,-5.5387,-5.5465,-5.5477,-5.5524,-5.5579,-5.5584,-5.5526,-5.5519,-5.5625,-5.5637,-5.565,-5.5815,-5.5678,-5.5686,-5.569,-5.6045,-5.6051,-5.6056,0,0,0,0,0,0,-5.5309,-5.5331,-5.5515,-5.5429,-5.5451,-5.5474,-5.5527,-5.5529,-5.556,-5.559,-5.5593,-5.5555,-5.5622,-5.5639,-5.5749,-5.5818,-5.5689,-5.5697,-5.604,-5.6047,-5.6054,-5.6144,0,0,0,0,0,0,-5.5302,-5.533,-5.5382,-5.543,-5.5456,-5.5613,-5.5531,-5.5534,-5.5575,-5.5568,-5.5618,-5.5622,-5.562,-5.5737,-5.5757,-5.5826,-5.5703,-5.6034,-5.6043,-5.6052,-5.6135,-5.6153,-5.6169,0,0,0,0,0,-5.5293,-5.5402,-5.5385,-5.5408,-5.5522,-5.5617,-5.5632,-5.5629,-5.5581,-5.5634,-5.5653,-5.562,-5.5807,-5.5749,-5.5771,-5.5844,-5.6029,-5.604,-5.6051,-5.6127,-5.615,-5.6168,0,0,0,0,0,0,-5.5359,-5.5408,-5.539,-5.5518,-5.5564,-5.5608,-5.5674,-5.5652,-5.5712,-5.5702,-5.5695,-5.5707,-5.5822,-5.5843,-5.5778,-5.5979,-5.5911,-5.5926,-5.5961,-5.5983,-5.5999,-5.5991,-5.571,0,0,0,0,0,-5.5389,-5.5463,-5.5501,-5.561,-5.5635,-5.5651,-5.5692,-5.5686,-5.5733,-5.5752,-5.5779,-5.5825,-5.5894,-5.5939,-5.6004,-5.6138,-5.6148,-5.6199,-5.6216,-5.623,-5.6243,-5.6317,-5.6341,-5.6092,-5.6092,-5.6091,0,0,-5.545,-5.5486,-5.5533,-5.5625,-5.566,-5.5737,-5.5667,-5.5751,-5.5807,-5.5764,-5.5871,-5.5892,-5.5943,-5.6066,-5.6121,-5.6088,-5.6315,-5.6244,-5.6254,-5.6261,-5.6331,-5.6354,-5.6375,-5.6099,-5.6098,-5.6097,0,0,-5.5602,-5.5636,-5.5732,-5.577,-5.5825,-5.5835,-5.5858,-5.5906,-5.5919,-5.6027,-5.5996,-5.6063,-5.6182,-5.622,-5.6255,-5.6424,-5.6397,-5.6445,-5.6534,-5.6607,-5.6626,-5.6644,-5.6705,-5.6727,-5.6459,-5.6459,-5.6459,0,-5.5671,-5.5786,-5.5783,-5.5871,-5.5912,-5.5879,-5.5976,-5.6012,-5.6085,-5.6114,-5.6075,-5.6226,-5.6257,-5.639,-5.6432,-5.6461,-5.6487,-5.6439,-5.6624,-5.6641,-5.6657,-5.6716,-5.6739,-5.6465,-5.6464,-5.6464,-5.6463,0,-5.5869,-5.595,-5.602,-5.6095,-5.6144,-5.6235,-5.6246,-5.6296,-5.6287,-5.6301,-5.6412,-5.6449,-5.6522,-5.6553,-5.6543,-5.6685,-5.6663,-5.6624,-5.6555,-5.6687,-5.6742,-5.6764,-5.6473,-5.6471,-5.6469,-5.6468,0,0,-5.6063,-5.6137,-5.6163,-5.6197,-5.6257,-5.6319,-5.6409,-5.6483,-5.6527,-5.6578,-5.6654,-5.6757,-5.6723,-5.6763,-5.6757,-5.6821,-5.6954,-5.6775,-5.6776,-5.6808,-5.7114,-5.7143,-5.7169,-5.6937,-5.6941,-5.6945,-5.711,0,-5.622,-5.638,-5.6381,-5.6528,-5.6603,-5.6574,-5.6653,-5.6698,-5.6714,-5.678,-5.6797,-5.687,-5.6819,-5.6843,-5.6905,-5.6925,-5.7016,-5.6913,-5.7007,-5.701,-5.6996,-5.7197,-5.7228,-5.7382,-5.7131,-5.7135,-5.7138,0,-5.6423,-5.6485,-5.664,-5.6691,-5.6723,-5.6794,-5.6862,-5.6925,-5.6976,-5.6984,-5.703,-5.7016,-5.7108,-5.7036,-5.7163,-5.7093,-5.7132,-5.7148,-5.7154,-5.7162,-5.7082,-5.7212,-5.7431,-5.7455,-5.7171,-5.7169,-5.7166,0,-5.6551,-5.6672,-5.6781,-5.6811,-5.6873,-5.6924,-5.6952,-5.6999,-5.7044,-5.7103,-5.7133,-5.7201,-5.7239,-5.7293,-5.7298,-5.7245,-5.7426,-5.7354,-5.7435,-5.7435,-5.7474,-5.7471,-5.7703,-5.7498,-5.7498,-5.7497,-5.7497,0,-5.6726,-5.6822,-5.684,-5.6907,-5.7015,-5.7015,-5.7121,-5.7144,-5.7187,-5.7258,-5.7236,-5.7303,-5.7305,-5.7373,-5.7377,-5.7483,-5.7499,-5.7508,-5.7508,-5.751,-5.7509,-5.7535,-5.7525,-5.7503,-5.7502,-5.7501,-5.75,0,-5.6886,-5.6902,-5.7019,-5.707,-5.7085,-5.7162,-5.7204,-5.7268,-5.7283,-5.7374,-5.7395,-5.7418,-5.7498,-5.7509,-5.76,-5.7603,-5.773,-5.7719,-5.7714,-5.7712,-5.7793,-5.7785,-5.8049,-5.8084,-5.7856,-5.7858,-5.786,0,-5.6997,-5.7071,-5.713,-5.7177,-5.7208,-5.7284,-5.7331,-5.7334,-5.7384,-5.7449,-5.7505,-5.7583,-5.7646,-5.7774,-5.7799,-5.787,-5.786,-5.7948,-5.787,-5.7871,-5.7862,-5.7858,-5.7866,-5.7962,-5.7965,-5.7967,-5.7969,0,-5.7192,-5.7197,-5.7265,-5.7339,-5.7396,-5.7452,-5.7506,-5.7545,-5.7556,-5.7612,-5.7695,-5.7744,-5.784,-5.7918,-5.7988,-5.8016,-5.7995,-5.7993,-5.8016,-5.8019,-5.8014,-5.8019,-5.7756,-5.7987,-5.7985,-5.7984,-5.7983,-5.7982,-5.7331,-5.7396,-5.7449,-5.7527,-5.7569,-5.762,-5.7683,-5.7708,-5.7777,-5.7857,-5.7855,-5.7946,-5.7996,-5.8089,-5.8123,-5.8193,-5.8164,-5.8197,-5.8205,-5.8213,-5.8222,-5.8003,-5.8206,-5.8205,-5.8205,-5.8205,-5.8204,0,-5.7526,-5.7559,-5.7631,-5.7708,-5.777,-5.7747,-5.7806,-5.7858,-5.794,-5.7989,-5.8052,-5.8148,-5.8224,-5.8256,-5.8331,-5.8381,-5.8374,-5.8401,-5.8397,-5.8404,-5.8243,-5.8216,-5.8406,-5.8406,-5.8406,-5.8406,-5.8406,-5.8406,-5.7634,-5.7744,-5.7756,-5.7887,-5.7919,-5.8009,-5.8045,-5.8092,-5.8132,-5.8241,-5.8305,-5.8326,-5.8369,-5.8447,-5.8516,-5.8523,-5.8552,-5.8584,-5.8587,-5.8436,-5.8415,-5.8396,-5.8371,-5.859,-5.8591,-5.8743,-5.8745,-5.8746]}]]